This is the latest recevied weather packets stored in our database for station/object WX4LTG. If no packets are shown the sender has not sent any weather packets the latest 10 day(s).
| Time | Temp. | Humidity | Pressure | Rain* | Wind** | Luminosity | Snow |
|---|---|---|---|---|---|---|---|
| 1777587389 | 32.22° C | 13% | 1005.3 hPa | 0 mm | - | 614 W/m² | - |
| 1777587085 | 32.22° C | 13% | 1005.6 hPa | 0 mm | - | 450 W/m² | - |
| 1777586781 | 31.67° C | 13% | 1005.8 hPa | 0 mm | - | 328 W/m² | - |
| 1777586476 | 31.11° C | 14% | 1005.9 hPa | 0 mm | - | 578 W/m² | - |
| 1777586172 | 31.67° C | 13% | 1005.9 hPa | 0 mm | - | 378 W/m² | - |
| 1777585870 | 31.67° C | 13% | 1005.9 hPa | 0 mm | - | 394 W/m² | - |
| 1777585565 | 31.67° C | 13% | 1006 hPa | 0 mm | - | 621 W/m² | - |
| 1777585261 | 32.22° C | 13% | 1006.1 hPa | 0 mm | - | 475 W/m² | - |
| 1777584955 | 31.67° C | 12% | 1006.2 hPa | 0 mm | - | 461 W/m² | - |
| 1777584653 | 31.67° C | 13% | 1006.2 hPa | 0 mm | - | 727 W/m² | - |
| 1777584350 | 31.67° C | 13% | 1006.2 hPa | 0 mm | - | 694 W/m² | - |
| 1777584046 | 31.11° C | 13% | 1006.4 hPa | 0 mm | - | 346 W/m² | - |
| 1777583740 | 31.67° C | 13% | 1006.5 hPa | 0 mm | - | 795 W/m² | - |
| 1777583439 | 31.67° C | 13% | 1006.6 hPa | 0 mm | - | 478 W/m² | - |
| 1777583139 | 31.11° C | 12% | 1006.5 hPa | 0 mm | - | 357 W/m² | - |
| 1777582835 | 31.11° C | 13% | 1006.6 hPa | 0 mm | - | 348 W/m² | - |
| 1777582532 | 31.11° C | 13% | 1006.7 hPa | 0 mm | - | 642 W/m² | - |
| 1777582227 | 31.67° C | 13% | 1007 hPa | 0 mm | - | 684 W/m² | - |
| 1777581925 | 31.11° C | 14% | 1007 hPa | 0 mm | - | 797 W/m² | - |
| 1777581620 | 31.67° C | 13% | 1007 hPa | 0 mm | - | 780 W/m² | - |
| 1777581314 | 32.22° C | 14% | 1007 hPa | 0 mm | - | 870 W/m² | - |
| 1777581010 | 31.67° C | 13% | 1007.2 hPa | 0 mm | - | 818 W/m² | - |
| 1777580709 | 32.22° C | 14% | 1007.2 hPa | 0 mm | - | 852 W/m² | - |
| 1777580406 | 31.67° C | 13% | 1007.1 hPa | 0 mm | - | 607 W/m² | - |
| 1777580101 | 31.11° C | 14% | 1007.3 hPa | 0 mm | - | 620 W/m² | - |
* Rain latest hour (hover to see other rain measurements)
** Current wind speed in m/s (hover to see current wind gust speed)